COSMOS 2251 DEB, 47062

Orbit data source: Space-Track

COSMOS 2251 DEB, 47062 is space debris in LEO originally from a launch on Wed, 16 Jun 1993 UTC launched from the Plesetsk Missile And Space Complex (PKMTR). The debris from Iridium 33, an American commercial communications satellite, has been tracked extensively since its accidental collision with the defunct Russian satellite Cosmos 2251 in 2009. This event, occurring at high speed in low Earth orbit (LEO), generated thousands of pieces of space debris, significantly increasing the risk of further collisions. The Iridium 33 debris cloud has impacted space traffic management and orbital debris mitigation strategies, making it a subject of ongoing study in space situational awareness.

Loading next visibility...
Identifier
47062, 1993-036BXS
Orbit
LEO
Country
Flag of CISCIS
Related business
Manufacturer
Unknown
Mission
Spacecraft
Bus & Motor
Unknown
Mass
Unknown
Launch date (UTC)
1993-06-16 (33 years ago)
Launch vehicle
Unknown
Launch site
Plesetsk Missile And Space Complex (PKMTR)
Object type
Payload
Rocket body
Debris
Shape & HBR
Unknown shape, 0.1 m
Radar Cross Section
Small (<0.1 m²)

Expand to show TLE details & history
Last TLE update: 3 days ago

TLE from 3 days ago
0 COSMOS 2251 DEB
1 47062U 93036BXS 26253.56119561  .00000327  00000-0  25986-3 0  9997
2 47062  74.0819 349.5855 0324227  51.9558 323.9465 13.72603606593319
Epoch: 2026-09-10T13:28Z
TLE epoch observation values (Epoch: 2026-09-10T13:28:07.300Z)
Latitude
13.08087°
Longitude
161.73726°
Altitude
801.642 km
Speed
7.549 km/s
True Right ascension
23h 33m 27s
True Declination
13° 00' 21"
Sunlit
Object was in full shadow at epoch
Visualization orbit readout
Latitude
Unknown
Longitude
Unknown
Altitude
Unknown
Speed
Unknown
Apparent Right ascension
Unknown
Apparent Declination
Unknown
Sunlit
N/A
Visualization observer readout
Local Sidereal Time
21:11:01
Azimuth
Unknown
Elevation
Unknown
Doppler factor
Unknown
Orbital elements
Apogee altitude
1,226.753 km
Perigee altitude
749.098 km
Semi-major axis
7,366.063 km
Eccentricity
0.03242
Inclination
74.0819°
RAAN
349.5855°
Arg. of periapsis
51.9558°
True anomaly
321.68647°
Mean anomaly
323.9465°
Eccentric anomaly
322.82396°
Mean motion
3.43313 °/min
Orbital period
104.86 mins
BSTAR
0.00025986

Documentation

Showing up to 5 results
|